Flag for Germany Weather past 2 weeks in Emmendingen, Baden-Württemberg, Germany

Now
41 °F

Broken clouds.


Feels Like: 32 °F
Forecast: 33 / 41 °F
Wind: 21 mph from Southwest

Location: Lahr - CAN-AFB

Current Time: Jan 29, 2015 at 2:26:02 PM

Latest Report: Jan 29, 2015 at 1:50 PM


Visibility: N/A

Pressure: 29.30 "Hg

Humidity: 76%

Dew point: 34 °F

Location of EmmendingenLocation

Historic Weather in Emmendingen — Graph

°F

Emmendingen temperature yesterday

Maximum temperature yesterday: 43 °F (at 7:50 PM)
Minimum temperature yesterday: 34 °F (at 6:50 AM)
Average temperature yesterday: 39 °F

Past Weeks' High & Low Weather Summary

 TemperatureHumidityPressure
High54 °F (Jan 15, 3:20 PM)100% (Jan 16, 1:50 PM)30.42 "Hg (Jan 16, 1:50 PM)
Low32 °F (Jan 19, 7:50 AM)50% (Jan 15, 12:20 PM)29.33 "Hg (Jan 29, 1:20 PM)
Average38 °F83%29.96 "Hg
* Reported Jan 14 1:20 PM — Jan 29 1:20 PM, Emmendingen, Weather by CustomWeather, © 2014

Note: Actual official high and low records may vary slightly from our data, if they occured in-between our weather recording intervals... More about our weather records

Advertising

Emmendingen weather history for previous 24 hours

 ConditionsComfort  
Time TempWeatherWind HumidityBarometerVisibility
1:20 PM
Jan 29
41 °FScattered clouds.21 mph81%29.33 "HgN/A
12:50 PM41 °FPartly sunny.21 mph81%29.36 "HgN/A
12:20 PM41 °FBroken clouds.22 mph76%29.39 "HgN/A
11:50 AM39 °FScattered clouds.20 mph81%29.42 "HgN/A
11:20 AM39 °FBroken clouds.21 mph81%29.45 "HgN/A
10:50 AM39 °FScattered clouds.18 mph75%29.45 "HgN/A
10:20 AM37 °FScattered clouds.16 mph81%29.47 "HgN/A
9:50 AM37 °FPartly sunny.15 mph81%29.50 "HgN/A
9:20 AM36 °FScattered clouds.13 mph87%29.53 "HgN/A
8:50 AM36 °FPartly sunny.15 mph87%29.53 "HgN/A
8:20 AM36 °FPartly sunny.12 mph87%29.56 "HgN/A
7:50 AM34 °FPassing clouds.10 mph93%29.56 "HgN/A
7:50 PM
Jan 28
43 °FLight rain. Passing clouds.30 mph66%29.68 "HgN/A
7:20 PM41 °FPassing clouds.26 mph70%29.71 "HgN/A
7:02 PM41 °FPassing clouds.25 mph70%29.71 "HgN/A
6:50 PM41 °FPassing clouds.24 mph70%29.74 "HgN/A
6:20 PM41 °FPassing clouds.23 mph70%29.74 "HgN/A
5:50 PM41 °FPassing clouds.21 mph70%29.77 "HgN/A
5:20 PM41 °FPassing clouds.18 mph70%29.80 "HgN/A
4:50 PM41 °FPartly sunny.21 mph70%29.83 "HgN/A
4:20 PM41 °FPartly sunny.16 mph70%29.86 "HgN/A
3:20 PM41 °FPartly sunny.18 mph70%29.89 "HgN/A
2:50 PM41 °FPartly sunny.21 mph70%29.92 "HgN/A
2:20 PM41 °FScattered clouds.17 mph76%29.95 "HgN/A
Weather by CustomWeather, © 2014

See weather overviewHow to use our weather pages